sat.trackr.live / text

‹ back to catalog

ONEWEB-0627

NORAD 55168 · 2023-004AE

PAYLOAD ACTIVE UNKNOWN

§ Identity

Operator
Country
UK
Launch date
2023-01-10
Launch site
AFETR
Launch vehicle
Mass (kg)
RCS (m²)

Purposes: comms

External: N2YO · Heavens-Above · Gunter

§ Orbital elements

Epoch: 2026-09-20T05:02:29.374080Z

Period
109.29 min
Inclination
87.9200°
Eccentricity
0.0002205
Mean motion
13.17649843 rev/d
Perigee alt
1,192.0 km
Apogee alt
1,195.4 km
Semi-major
7,571.8 km
B*
1.1652e-4
RAAN
347.0059°
Arg perigee
111.1809°
Mean anomaly
248.9558°
Rev number
18,009

§ Raw data

ONEWEB-06271 55168U 23004AE  26263.21006220  .00000058  00000+0  11652-3 0  99962 55168  87.9200 347.0059 0002205 111.1809 248.9558 13.17649843180096

JSON: /api/v1/satellites/55168 · /tle

For live sub-satellite position, see the globe view (requires WebGL).

§ Visibility from observer

Set your observer location to see the next 7 days of passes ≥ 10°. The values pass through the URL so the page stays shareable.

No JS? Fill the form by hand. The geolocation button needs JavaScript.